Paducah, KY

7:02 PM CDT on May 27, 2017 (GMT -0500)
Barkley Regional

Weather History for KPAH - November, 2011

Change the Weather History Date:

Friday, November 4, 2011

  Actual Average Record
Temperature  
Mean Temperature 44 °F 53 °F  
Max Temperature 52 °F 64 °F 82 °F (1987)
Min Temperature 35 °F 42 °F 16 °F (1991)
Degree Days  
Heating Degree Days 21 12  
Month to date heating degree days 50 48  
Since 1 July heating degree days 318 315  
Cooling Degree Days 0 0  
Month to date cooling degree days 0 0  
Year to date cooling degree days 1698 1538  
Moisture  
Dew Point 43 °F    
Average Humidity 86    
Maximum Humidity 100    
Minimum Humidity 71    
Precipitation  
Precipitation 0.00 in 0.12 in 1.85 in (1988)
Month to date precipitation 0.48 0.50  
Year to date precipitation 58.04 40.69  
Snow  
Snow 0.00 in 0.00 in T in (1951)
Month to date snowfall 0.0 0.0  
Since 1 July snowfall 0.0 0.1  
Since 1 September snowfall 0.0 0.1  
Snow Depth 0.00 in    
Sea Level Pressure  
Sea Level Pressure 30.15 in    
Wind  
Wind Speed 7 mph (North)    
Max Wind Speed 15 mph    
Max Gust Speed 20 mph    
Visibility 6 miles    
Events Fog    
T = Trace of Precipitation, MM = Missing Value Source: NWS Daily Summary

Daily Weather History Graph

Daily Weather History Graph

Search for Another Location

Airport or City:

Trip Planner

Search our weather history database for the weather conditions in past years. The results will help you decide how hot, cold, wet, or windy it might be!

Date:

Astronomy

Nov. 04, 2011 Rise Set
Actual Time 7:22 AM CDT 5:54 PM CDT
Civil Twilight 6:54 AM CDT 6:21 PM CDT
Nautical Twilight 6:24 AM CDT 6:52 PM CDT
Astronomical Twilight 5:53 AM CDT 7:22 PM CDT
Moon 2:39 PM CDT (11/4) 1:41 AM CDT (11/4)
Length of Visible Light 11h 26m
Length of Day
10h 32m
Waxing Gibbous, 69% of the Moon is Illuminated
Nov 4
Waxing Gibbous
Nov 10
Full
Nov 18
Last Quarter
Nov 25
New
Dec 2
First Quarter

Hourly Weather History & Observations

Time (CDT) Temp. Dew Point Humidity Pressure Visibility Wind Dir Wind Speed Gust Speed Precip Events Conditions
12:20 AM 48.2 °F 46.4 °F 93% 30.01 in 7.0 mi NNW 5.8 mph - N/A   Overcast
12:33 AM 48.2 °F 46.4 °F 93% 30.01 in 8.0 mi NNW 6.9 mph - N/A   Overcast
12:53 AM 48.9 °F 46.0 °F 90% 30.01 in 8.0 mi North 5.8 mph - N/A   Overcast
1:15 AM 50.0 °F 46.4 °F 87% 30.02 in 7.0 mi NNW 10.4 mph - N/A   Overcast
1:53 AM 50.0 °F 46.0 °F 86% 30.03 in 6.0 mi NNW 11.5 mph - N/A   Overcast
2:10 AM 50.0 °F 46.4 °F 87% 30.03 in 6.0 mi NW 5.8 mph - N/A   Overcast
2:27 AM 50.0 °F 46.4 °F 87% 30.04 in 5.0 mi NNW 8.1 mph - N/A   Overcast
2:37 AM 50.0 °F 46.4 °F 87% 30.04 in 5.0 mi NNW 12.7 mph 18.4 mph N/A   Overcast
2:53 AM 48.2 °F 46.4 °F 93% 30.04 in 5.0 mi North 11.5 mph - N/A   Overcast
3:06 AM 48.2 °F 46.4 °F 93% 30.04 in 4.0 mi NNW 11.5 mph - N/A   Overcast
3:53 AM 48.9 °F 46.0 °F 90% 30.05 in 5.0 mi NNW 10.4 mph - N/A   Overcast
4:53 AM 48.9 °F 46.0 °F 90% 30.09 in 6.0 mi North 11.5 mph 18.4 mph N/A   Overcast
5:53 AM 48.9 °F 46.0 °F 90% 30.11 in 6.0 mi North 10.4 mph - N/A   Overcast
6:25 AM 48.2 °F 46.4 °F 93% 30.12 in 6.0 mi North 8.1 mph - N/A   Overcast
6:53 AM 48.9 °F 45.0 °F 86% 30.13 in 7.0 mi North 11.5 mph - N/A   Overcast
7:53 AM 48.9 °F 45.0 °F 86% 30.16 in 7.0 mi North 13.8 mph - N/A   Overcast
8:43 AM 50.0 °F 44.6 °F 82% 30.17 in 8.0 mi North 10.4 mph - N/A   Overcast
8:53 AM 50.0 °F 45.0 °F 83% 30.17 in 8.0 mi NNE 8.1 mph - N/A   Overcast
9:53 AM 50.0 °F 44.1 °F 80% 30.19 in 9.0 mi NNE 10.4 mph - N/A   Overcast
10:53 AM 50.0 °F 44.1 °F 80% 30.20 in 9.0 mi NNE 8.1 mph - N/A   Overcast
11:53 AM 51.1 °F 44.1 °F 77% 30.22 in 9.0 mi NNE 10.4 mph - N/A   Overcast
12:11 PM 51.8 °F 44.6 °F 76% 30.21 in 9.0 mi NNE 8.1 mph - N/A   Overcast
12:53 PM 51.1 °F 44.1 °F 77% 30.22 in 9.0 mi North 9.2 mph - N/A   Overcast
1:53 PM 51.1 °F 44.1 °F 77% 30.21 in 9.0 mi North 9.2 mph - N/A   Overcast
2:53 PM 52.0 °F 44.1 °F 74% 30.20 in 9.0 mi NNE 6.9 mph - N/A   Overcast
3:53 PM 52.0 °F 44.1 °F 74% 30.20 in 9.0 mi NNE 6.9 mph - N/A   Overcast
4:53 PM 52.0 °F 44.1 °F 74% 30.20 in 9.0 mi NE 3.5 mph - N/A   Overcast
5:53 PM 51.1 °F 44.1 °F 77% 30.21 in 9.0 mi NNE 5.8 mph - N/A   Overcast
6:53 PM 51.1 °F 43.0 °F 74% 30.22 in 10.0 mi ENE 5.8 mph - N/A   Overcast
7:16 PM 48.2 °F 42.8 °F 82% 30.22 in 10.0 mi Calm Calm - N/A   Scattered Clouds
7:53 PM 46.9 °F 42.1 °F 83% 30.22 in 8.0 mi Calm Calm - N/A   Clear
8:53 PM 41.0 °F 39.0 °F 93% 30.22 in 2.5 mi Calm Calm - N/A   Clear
9:10 PM 39.2 °F 37.4 °F 93% 30.22 in 1.0 mi Calm Calm - N/A   Clear
9:48 PM 41.0 °F 39.2 °F 93% 30.23 in 0.5 mi Calm Calm - N/A Fog Fog
9:53 PM 41.0 °F 39.0 °F 93% 30.23 in 0.8 mi Calm Calm - N/A   Clear
10:09 PM 37.4 °F 35.6 °F 93% 30.23 in 0.2 mi Calm Calm - N/A Fog Fog
10:46 PM 37.4 °F 35.6 °F 93% 30.23 in 0.8 mi Calm Calm - N/A   Clear
10:53 PM 37.9 °F 36.0 °F 93% 30.23 in 0.2 mi Calm Calm - N/A Fog Fog
11:53 PM 36.0 °F 35.1 °F 97% 30.22 in 0.2 mi Calm Calm - N/A Fog Fog